Погода в Леоне

Никарагуа     12°25′25″N   86°52′52″W
темп.,
°C
ветер,
м/с
пор.,
м/с
влажн.,
%
обл.,
%
осадки,
мм/ч
давл.,
гПа
погр.,
м
17 апреля, сб
сб1700:00+27ююв117195 0.9 1010143
03:00+26вюв1375100 0.4 1009127
06:00+26в1377100 1.0 1011134
09:00+33в124797 0.2 10111347
12:00+35ююз443996 0.2 10092113
15:00+32юз545139 0.1 1007974
18:00+28зюз347174 0.1 1008570
21:00+27в007889 2.5 101132
18 апреля, вс
вс1800:00+27всв117470 4.1 101125
03:00+26вюв1277100 0.3 101063
06:00+26всв1278100 0.9 101189
09:00+30ююв1258100 0.1 10121054
12:00+31юз535790 0.2 1010985
15:00+32юз535781 0.3 10081067
18:00+28юз347393 0.3 1008635
21:00+26ссв228299 3.9 1011117
19 апреля, пн
пн1900:00+24всв2488100 9.0 1012130
03:00+24св2483100 5.0 1011171
06:00+24всв2377100 6.3 1012116
09:00+26с1172100 0.0 1013198
12:00+30св1255100 0.0 1011668
15:00+32юз2246100 0.0 10081193
18:00+27ююз237178 0.3 1009167
21:00+26в118089 1.4 101158
20 апреля, вт
вт2000:00+24св1287100 5.7 101157
03:00+24ссв2389100 5.5 1010113
06:00+24св228699 6.6 1012108
09:00+24ссв1188100 0.9 1014146
12:00+30сз126199 1.4 1011878
15:00+31юз435553 0.2 10081036
18:00+27ю347852 1.0 1010396
21:00+24св51084100 9.3 1012474
21 апреля, ср
ср2100:00+23св3591100 15.6 1012202
03:00+23ссв1288100 2.0 1011125
06:00+24ссв2385100 2.3 1012115
09:00+28с126394 0.0 1013572
12:00+33ю124893 0.0 10111553
15:00+30юз336096 0.8 1009757
18:00+25ююв2487100 8.3 1010222
21:00+25ююв1186100 4.6 1012158